Home   Weather   Columbus   Past weeks
Flag for USA

Past Weather in Columbus, Ohio, USA — Yesterday and Last 2 Weeks

Now
62 °F

Passing clouds.


Feels Like: 62 °F
Forecast: 78 / 58 °F
Wind: No wind

Location: John Glenn Columbus International Airport

Current Time: Jul 24, 2019 at 2:50:47 am

Latest Report: Jul 24, 2019 at 1:51 am


Visibility: 10 mi

Pressure: 30.02 "Hg

Humidity: 78%

Dew Point: 55 °F

Location of ColumbusLocation

Past Weather in Columbus — Graph

°F

Columbus Temperature Yesterday

Maximum temperature yesterday: 78 °F (at 3:51 pm)
Minimum temperature yesterday: 60 °F (at 4:51 am)
Average temperature yesterday: 69 °F

High & Low Weather Summary for the Past Weeks

 TemperatureHumidityPressure
High94 °F (Jul 20, 4:51 pm)97% (Jul 18, 6:51 am)30.11 "Hg (Jul 18, 6:51 am)
Low60 °F (Jul 23, 4:51 am)28% (Jul 13, 3:51 pm)29.76 "Hg (Jul 11, 5:51 pm)
Average79 °F70%29.95 "Hg
* Reported Jul 9 12:51 am — Jul 24 12:51 am, Columbus. Weather by CustomWeather, © 2019

Note: Actual official high and low records may vary slightly from our data, if they occured in-between our weather recording intervals... More about our weather records

Advertising

Columbus Weather History for the Previous 24 Hours

Scroll right to see more
 ConditionsComfort  
Time TempWeatherWind HumidityBarometerVisibility
12:51 am
Wed, Jul 24
62 °FPassing clouds.7 mph75%30.03 "Hg10 mi
11:51 pm
Tue, Jul 23
64 °FClear.No wind68%30.02 "Hg10 mi
10:51 pm65 °FClear.No wind63%30.01 "Hg10 mi
9:51 pm68 °FClear.No wind53%30.01 "Hg10 mi
8:51 pm70 °FSunny.5 mph47%30.00 "Hg10 mi
7:51 pm73 °FPassing clouds.10 mph37%29.98 "Hg10 mi
6:51 pm76 °FPassing clouds.12 mph29%29.98 "Hg10 mi
5:51 pm76 °FScattered clouds.15 mph40%29.98 "Hg10 mi
4:51 pm78 °FScattered clouds.14 mph39%29.97 "Hg10 mi
3:51 pm78 °FScattered clouds.12 mph39%29.97 "Hg10 mi
2:51 pm77 °FScattered clouds.15 mph40%29.98 "Hg10 mi
1:51 pm77 °FScattered clouds.14 mph40%30.00 "Hg10 mi
12:51 pm76 °FScattered clouds.13 mph40%30.01 "Hg10 mi
11:51 am75 °FPassing clouds.10 mph39%30.02 "Hg10 mi
10:51 am74 °FSunny.13 mph43%30.01 "Hg10 mi
9:51 am70 °FSunny.12 mph59%30.01 "Hg10 mi
8:51 am66 °FSunny.9 mph70%30.01 "Hg10 mi
7:51 am62 °FSunny.8 mph78%30.00 "Hg10 mi
6:51 am60 °FSunny.No wind83%29.99 "Hg10 mi
5:51 am60 °FClear.3 mph90%29.98 "Hg10 mi
4:51 am60 °FClear.3 mph90%29.98 "Hg10 mi
3:51 am63 °FPassing clouds.5 mph84%29.97 "Hg10 mi
2:51 am63 °FPassing clouds.3 mph90%29.97 "Hg10 mi
Weather by CustomWeather, © 2019

See weather overview